Weather in Santa Teresa

Venezuela     10°14′03″N   66°39′51″W
temp.,
°C
wind,
m/s
gust,
m/s
humid.,
%
clouds,
%
prec.,
mm/h
press.,
hPa
HPBL,
m
26 january, tue
tue2623:00+18n119859 0.0 101323
02:00+18nw119780 0.0 101323
05:00+19wsw0189100 0.0 101230
08:00+20nw0086100 0.0 101479
11:00+26e366299 0.1 10151240
14:00+28e3555100 0.2 10131330
17:00+26e466193 0.0 1011980
20:00+19ene119569 0.0 101329
27 january, wed
wed2723:00+18nnw11975 0.0 101324
02:00+19nw118629 0.0 101335
05:00+20ne0084100 0.0 101324
08:00+21nne0188100 0.3 101588
11:00+26ene366798 0.3 10161017
14:00+28e465585 0.4 10121321
17:00+26e3665100 0.0 1010947
20:00+19ne1196100 0.0 101224
28 january, thu
thu2823:00+18n119896 0.0 101323
02:00+19wnw129298 0.0 101244
05:00+18nnw1193100 0.0 101224
08:00+20nw008796 0.1 101461
11:00+26e356263 0.1 10151197
14:00+29e354951 0.2 10121463
17:00+27e465953 0.0 10101053
20:00+19ene129626 0.0 101131
29 january, fri
fri2923:00+18nnw119815 0.0 101225
02:00+17nnw119821 0.0 101223
05:00+17nw119753 0.0 101124
08:00+19nw018867 0.0 101469
11:00+27e245231 0.0 10141256
14:00+30e344115 0.0 10111637
17:00+27e464967 0.0 10091076
20:00+18ne128970 0.0 101130
30 january, sat
sat3023:00+16nnw11934 0.0 101223
02:00+16wnw11847 0.0 101223
05:00+18wnw117757 0.0 101230
08:00+19w018274 0.0 101463
11:00+27e355646 0.0 10151226
14:00+29e454723 0.0 10121578
17:00+27e46590 0.0 10101069
20:00+19ne11927 0.0 101227